This is the latest recevied weather packets stored in our database for station/object DL3TR-13. If no packets are shown the sender has not sent any weather packets the latest 1 day(s).
| Time | Temp. | Humidity | Pressure | Rain* | Wind** | Luminosity | Snow |
|---|---|---|---|---|---|---|---|
| 1778002990 | 12.78° C | 86% | 1006.5 hPa | 0 mm | 0.45 m/s, 240° | 16 W/m² | - |
| 1778002390 | 13.33° C | 84% | 1006.5 hPa | 0 mm | 0.89 m/s, 239° | 16 W/m² | - |
| 1778001790 | 13.89° C | 83% | 1006.4 hPa | 0 mm | 1.79 m/s, 240° | 28 W/m² | - |
| 1778001190 | 14.44° C | 82% | 1006.2 hPa | 0 mm | 0.89 m/s, 258° | 47 W/m² | - |
| 1778000590 | 15° C | 81% | 1006 hPa | 0 mm | 1.34 m/s, 245° | 83 W/m² | - |
| 1777999989 | 15.56° C | 80% | 1005.9 hPa | 0 mm | 1.79 m/s, 238° | 128 W/m² | - |
| 1777999390 | 15° C | 82% | 1005.8 hPa | 0 mm | 1.79 m/s, 232° | 116 W/m² | - |
| 1777998790 | 15° C | 81% | 1005.6 hPa | 0 mm | 0.89 m/s, 238° | 155 W/m² | - |
| 1777998189 | 15° C | 80% | 1005.6 hPa | 0 mm | 0.89 m/s, 265° | 102 W/m² | - |
| 1777997590 | 15.56° C | 79% | 1005.5 hPa | 0 mm | 0.89 m/s, 265° | 118 W/m² | - |
| 1777996990 | 15.56° C | 76% | 1005.5 hPa | 0 mm | 0.89 m/s, 198° | 83 W/m² | - |
| 1777996390 | 15.56° C | 76% | 1005.5 hPa | 0 mm | 0.45 m/s, 287° | 118 W/m² | - |
| 1777995790 | 15.56° C | 76% | 1005.6 hPa | 0 mm | 0.45 m/s, 336° | 209 W/m² | - |
| 1777995189 | 15.56° C | 76% | 1005.8 hPa | 0 mm | 2.24 m/s, 304° | 172 W/m² | - |
| 1777994590 | 15.56° C | 74% | 1005.7 hPa | 0 mm | 1.79 m/s, 304° | 151 W/m² | - |
| 1777993990 | 16.11° C | 70% | 1005.8 hPa | 0 mm | 1.34 m/s, 243° | 90 W/m² | - |
| 1777993390 | 17.22° C | 64% | 1005.9 hPa | 0 mm | 0.89 m/s, 229° | 135 W/m² | - |
| 1777992789 | 17.22° C | 63% | 1005.6 hPa | 0 mm | 2.24 m/s, 298° | 225 W/m² | - |
| 1777992190 | 17.22° C | 63% | 1005.6 hPa | 0 mm | 1.79 m/s, 256° | 225 W/m² | - |
| 1777991590 | 17.78° C | 62% | 1005.6 hPa | 0 mm | 1.34 m/s, 269° | 287 W/m² | - |
| 1777990990 | 17.78° C | 63% | 1005.6 hPa | 0 mm | 0.89 m/s, 280° | 294 W/m² | - |
| 1777990390 | 17.78° C | 57% | 1005.7 hPa | 0 mm | 0.45 m/s, 355° | 417 W/m² | - |
| 1777989790 | 17.22° C | 56% | 1005.8 hPa | 0 mm | 0.89 m/s, 355° | 308 W/m² | - |
| 1777989189 | 17.78° C | 56% | 1005.8 hPa | 0 mm | 0.89 m/s, 5° | 350 W/m² | - |
| 1777988590 | 17.78° C | 55% | 1005.8 hPa | 0 mm | 0.45 m/s, 300° | 550 W/m² | - |
* Rain latest hour (hover to see other rain measurements)
** Current wind speed in m/s (hover to see current wind gust speed)